Погода в Селе Станция-Бряндино

Россия / Ульяновская область     54°20′26″N   49°21′18″E
темп.,
°C
ветер,
м/с
пор.,
м/с
влажн.,
%
обл.,
%
осадки,
мм/ч
давл.,
гПа
погр.,
м
9 марта, вт
вт901:00−8з6129390 0.1 1004351
04:00−12з349680 0.1 100763
07:00−15з34940 0.0 100933
10:00−12зсз23930 0.0 1010129
13:00−9зсз228818 0.0 1010263
16:00−9сз239047 0.0 1010241
19:00−14ссз349325 0.0 101038
22:00−16сз349612 0.0 101138
10 марта, ср
ср1001:00−14сз489762 0.0 1010197
04:00−16сз599681 0.1 1011241
07:00−17сз6119597 0.1 1012354
10:00−18сз7119498 0.1 1014444
13:00−18сз71093100 0.0 1015494
16:00−18сз71092100 0.1 1017538
19:00−19ссз61194100 0.1 1019526
22:00−22ссз5119387 0.1 1021264
11 марта, чт
чт1101:00−25сз48956 0.0 1022133
04:00−26сз46993 0.0 102494
07:00−26сз4810050 0.0 1025117
10:00−21сз599665 0.0 1026291
13:00−17зсз589492 0.0 1026386
16:00−15сз589196 0.1 1026515
19:00−18сз479789 0.0 1027124
22:00−18зсз469981 0.0 1028102
12 марта, пт
пт1201:00−18зсз349982 0.0 102962
04:00−18зсз449981 0.0 103070
07:00−18зсз459851 0.0 103180
10:00−14зсз479125 0.0 1033210
13:00−11зсз47870 0.0 1033291
16:00−10з47860 0.0 1032324
19:00−13з358819 0.0 103263
22:00−14з358548 0.0 103475
13 марта, сб
сб1301:00−15з358795 0.0 103478
04:00−16з348677 0.0 103552
07:00−16з348798 0.0 103566
10:00−13зюз358671 0.0 1035194
13:00−10юз348358 0.0 1035292
16:00−8ю469045 0.0 1033314
19:00−11ююз47930 0.0 1032115
22:00−15ююз45940 0.0 103287